Time,TemperatureF,DewpointF,PressureIn,WindDirection,WindDirectionDegrees,WindSpeedMPH,WindSpeedGustMPH,Humidity,HourlyPrecipIn,Conditions,Clouds,dailyrainin,SoftwareType,DateUTC
2013-02-15 00:02:00,49.0,40.0,30.03,WNW,296,3.0,6.0,71,0.00,,,0.00,,2013-02-15 06:02:00,
2013-02-15 00:11:00,49.0,40.0,30.02,WNW,284,1.0,9.0,71,0.00,,,0.00,,2013-02-15 06:11:00,
2013-02-15 00:21:00,49.0,40.0,30.02,WNW,284,1.0,9.0,71,0.00,,,0.00,,2013-02-15 06:21:00,
2013-02-15 00:31:00,49.0,40.0,30.03,WNW,289,0.0,5.0,72,0.00,,,0.00,,2013-02-15 06:31:00,
2013-02-15 00:42:00,49.0,40.0,30.03,WNW,289,0.0,5.0,72,0.00,,,0.00,,2013-02-15 06:42:00,
2013-02-15 00:52:00,48.0,39.0,30.03,WNW,289,0.0,0.0,72,0.00,,,0.00,,2013-02-15 06:52:00,
2013-02-15 01:01:00,48.0,40.0,30.03,WNW,289,0.0,0.0,74,0.00,,,0.00,,2013-02-15 07:01:00,
2013-02-15 01:11:00,48.0,40.0,30.03,WNW,289,0.0,0.0,74,0.00,,,0.00,,2013-02-15 07:11:00,
2013-02-15 01:21:00,47.0,39.0,30.04,WNW,291,0.0,0.0,75,0.00,,,0.00,,2013-02-15 07:21:00,
2013-02-15 01:31:00,47.0,40.0,30.04,WNW,291,0.0,2.0,77,0.00,,,0.00,,2013-02-15 07:31:00,
2013-02-15 01:42:00,47.0,40.0,30.04,WNW,291,0.0,2.0,77,0.00,,,0.00,,2013-02-15 07:42:00,
2013-02-15 01:52:00,46.0,40.0,30.04,NW,305,0.0,0.0,78,0.00,,,0.00,,2013-02-15 07:52:00,
2013-02-15 02:01:00,45.0,39.0,30.04,NW,305,0.0,0.0,79,0.00,,,0.00,,2013-02-15 08:01:00,
2013-02-15 02:11:00,45.0,39.0,30.04,NW,305,0.0,0.0,79,0.00,,,0.00,,2013-02-15 08:11:00,
2013-02-15 02:21:00,45.0,39.0,30.04,NW,305,0.0,0.0,79,0.00,,,0.00,,2013-02-15 08:21:00,
2013-02-15 02:31:00,44.0,39.0,30.04,NW,305,0.0,0.0,81,0.00,,,0.00,,2013-02-15 08:31:00,
2013-02-15 02:42:00,44.0,39.0,30.04,NW,305,0.0,0.0,81,0.00,,,0.00,,2013-02-15 08:42:00,
2013-02-15 02:53:00,43.0,38.0,30.05,NW,305,0.0,1.0,84,0.00,,,0.00,,2013-02-15 08:53:00,
2013-02-15 03:01:00,43.0,39.0,30.05,NW,305,0.0,0.0,85,0.00,,,0.00,,2013-02-15 09:01:00,
2013-02-15 03:12:00,43.0,39.0,30.05,NW,305,0.0,0.0,85,0.00,,,0.00,,2013-02-15 09:12:00,
2013-02-15 03:21:00,43.0,39.0,30.06,NW,305,0.0,1.0,85,0.00,,,0.00,,2013-02-15 09:21:00,
2013-02-15 03:32:00,43.0,38.0,30.06,NW,316,0.0,3.0,84,0.00,,,0.00,,2013-02-15 09:32:00,
2013-02-15 03:42:00,43.0,38.0,30.06,NW,316,0.0,3.0,84,0.00,,,0.00,,2013-02-15 09:42:00,
2013-02-15 03:52:00,44.0,39.0,30.06,NW,317,0.0,0.0,82,0.00,,,0.00,,2013-02-15 09:52:00,
2013-02-15 04:01:00,44.0,37.0,30.06,NW,326,0.0,3.0,77,0.00,,,0.00,,2013-02-15 10:01:00,
2013-02-15 04:11:00,44.0,37.0,30.06,NW,326,0.0,3.0,77,0.00,,,0.00,,2013-02-15 10:11:00,
2013-02-15 04:21:00,44.0,37.0,30.07,NNE,30,0.0,2.0,76,0.00,,,0.00,,2013-02-15 10:21:00,
2013-02-15 04:31:00,44.0,37.0,30.08,NNE,19,1.0,4.0,75,0.00,,,0.00,,2013-02-15 10:31:00,
2013-02-15 04:41:00,44.0,37.0,30.08,NNE,19,1.0,4.0,75,0.00,,,0.00,,2013-02-15 10:41:00,
2013-02-15 04:52:00,44.0,36.0,30.09,NNE,19,0.0,0.0,73,0.00,,,0.00,,2013-02-15 10:52:00,
2013-02-15 05:01:00,44.0,36.0,30.09,NNE,19,0.0,0.0,73,0.00,,,0.00,,2013-02-15 11:01:00,
2013-02-15 05:11:00,44.0,36.0,30.09,NNE,19,0.0,0.0,73,0.00,,,0.00,,2013-02-15 11:11:00,
2013-02-15 05:22:00,44.0,36.0,30.11,NNE,19,0.0,2.0,74,0.00,,,0.00,,2013-02-15 11:22:00,
2013-02-15 05:32:00,44.0,37.0,30.11,NNE,19,0.0,0.0,75,0.00,,,0.00,,2013-02-15 11:32:00,
2013-02-15 05:42:00,44.0,37.0,30.11,NNE,19,0.0,0.0,75,0.00,,,0.00,,2013-02-15 11:42:00,
2013-02-15 05:52:00,44.0,37.0,30.11,NNE,19,0.0,0.0,75,0.00,,,0.00,,2013-02-15 11:52:00,
2013-02-15 06:01:00,44.0,37.0,30.12,NNE,19,3.0,6.0,75,0.00,,,0.00,,2013-02-15 12:01:00,
2013-02-15 06:11:00,44.0,37.0,30.12,NNE,19,3.0,6.0,75,0.00,,,0.00,,2013-02-15 12:11:00,
2013-02-15 06:21:00,44.0,36.0,30.12,ENE,67,3.0,5.0,72,0.00,,,0.00,,2013-02-15 12:21:00,
2013-02-15 06:32:00,45.0,36.0,30.12,NNW,342,2.0,5.0,71,0.00,,,0.00,,2013-02-15 12:32:00,
2013-02-15 06:42:00,45.0,36.0,30.12,NNW,342,2.0,5.0,71,0.00,,,0.00,,2013-02-15 12:42:00,
2013-02-15 06:52:00,45.0,35.0,30.12,NE,36,0.0,6.0,69,0.00,,,0.00,,2013-02-15 12:52:00,
2013-02-15 07:02:00,45.0,35.0,30.12,NE,43,1.0,6.0,69,0.00,,,0.00,,2013-02-15 13:02:00,
2013-02-15 07:11:00,45.0,35.0,30.12,NE,43,1.0,6.0,69,0.00,,,0.00,,2013-02-15 13:11:00,
2013-02-15 07:21:00,46.0,36.0,30.14,NNE,31,4.0,11.0,68,0.00,,,0.00,,2013-02-15 13:21:00,
2013-02-15 07:32:00,46.0,36.0,30.14,North,360,2.0,7.0,67,0.00,,,0.00,,2013-02-15 13:32:00,
2013-02-15 07:41:00,46.0,36.0,30.14,North,360,2.0,7.0,67,0.00,,,0.00,,2013-02-15 13:41:00,
2013-02-15 07:52:00,46.0,36.0,30.15,NNE,28,8.0,12.0,68,0.00,,,0.00,,2013-02-15 13:52:00,
2013-02-15 08:01:00,46.0,36.0,30.15,ENE,69,4.0,10.0,69,0.00,,,0.00,,2013-02-15 14:01:00,
2013-02-15 08:11:00,46.0,36.0,30.15,ENE,69,4.0,10.0,69,0.00,,,0.00,,2013-02-15 14:11:00,
2013-02-15 08:21:00,46.0,37.0,30.15,NNE,15,3.0,11.0,71,0.00,,,0.00,,2013-02-15 14:21:00,
2013-02-15 08:32:00,46.0,37.0,30.16,NNE,24,1.0,4.0,72,0.00,,,0.00,,2013-02-15 14:32:00,
2013-02-15 08:41:00,46.0,37.0,30.16,NNE,24,1.0,4.0,72,0.00,,,0.00,,2013-02-15 14:41:00,
2013-02-15 08:52:00,47.0,38.0,30.16,NE,41,3.0,6.0,70,0.00,,,0.00,,2013-02-15 14:52:00,
2013-02-15 09:01:00,48.0,38.0,30.16,NNE,21,3.0,6.0,69,0.00,,,0.00,,2013-02-15 15:01:00,
2013-02-15 09:11:00,48.0,38.0,30.16,NNE,21,3.0,6.0,69,0.00,,,0.00,,2013-02-15 15:11:00,
2013-02-15 09:21:00,48.0,37.0,30.16,NNE,16,5.0,9.0,65,0.00,,,0.00,,2013-02-15 15:21:00,
2013-02-15 09:32:00,49.0,37.0,30.16,North,351,3.0,11.0,64,0.00,,,0.00,,2013-02-15 15:32:00,
2013-02-15 09:42:00,49.0,37.0,30.16,North,351,3.0,11.0,64,0.00,,,0.00,,2013-02-15 15:42:00,
2013-02-15 09:52:00,49.0,37.0,30.16,North,349,5.0,12.0,63,0.00,,,0.00,,2013-02-15 15:52:00,
2013-02-15 10:01:00,49.0,37.0,30.16,North,5,6.0,11.0,62,0.00,,,0.00,,2013-02-15 16:01:00,
2013-02-15 10:11:00,49.0,37.0,30.16,North,5,6.0,11.0,62,0.00,,,0.00,,2013-02-15 16:11:00,
2013-02-15 10:22:00,49.0,36.0,30.16,NE,51,5.0,8.0,60,0.00,,,0.00,,2013-02-15 16:22:00,
2013-02-15 10:32:00,51.0,35.0,30.16,NE,56,5.0,11.0,54,0.00,,,0.00,,2013-02-15 16:32:00,
2013-02-15 10:42:00,51.0,35.0,30.16,NE,56,5.0,11.0,54,0.00,,,0.00,,2013-02-15 16:42:00,
2013-02-15 10:52:00,51.0,34.0,30.16,NE,50,5.0,11.0,53,0.00,,,0.00,,2013-02-15 16:52:00,
2013-02-15 11:01:00,51.0,34.0,30.16,ENE,72,4.0,8.0,52,0.00,,,0.00,,2013-02-15 17:01:00,
2013-02-15 11:11:00,52.0,31.0,30.16,NE,51,8.0,14.0,45,0.00,,,0.00,,2013-02-15 17:11:00,
2013-02-15 11:21:00,52.0,31.0,30.16,NE,51,8.0,14.0,45,0.00,,,0.00,,2013-02-15 17:21:00,
2013-02-15 11:32:00,52.0,31.0,30.16,NNE,15,5.0,14.0,44,0.00,,,0.00,,2013-02-15 17:32:00,
2013-02-15 11:42:00,52.0,31.0,30.16,NNE,15,5.0,14.0,44,0.00,,,0.00,,2013-02-15 17:42:00,
2013-02-15 11:52:00,53.0,29.0,30.15,North,351,6.0,12.0,39,0.00,,,0.00,,2013-02-15 17:52:00,
2013-02-15 12:01:00,54.0,30.0,30.15,NW,319,4.0,12.0,39,0.00,,,0.00,,2013-02-15 18:01:00,
2013-02-15 12:11:00,54.0,30.0,30.15,NW,319,4.0,12.0,39,0.00,,,0.00,,2013-02-15 18:11:00,
2013-02-15 12:21:00,53.0,28.0,30.15,NE,44,9.0,15.0,38,0.00,,,0.00,,2013-02-15 18:21:00,
2013-02-15 12:31:00,54.0,30.0,30.14,NNW,346,6.0,13.0,39,0.00,,,0.00,,2013-02-15 18:31:00,
2013-02-15 12:42:00,54.0,30.0,30.14,NNW,346,6.0,13.0,39,0.00,,,0.00,,2013-02-15 18:42:00,
2013-02-15 12:52:00,54.0,30.0,30.14,ESE,110,4.0,12.0,39,0.00,,,0.00,,2013-02-15 18:52:00,
2013-02-15 13:01:00,53.0,29.0,30.13,ESE,107,9.0,14.0,39,0.00,,,0.00,,2013-02-15 19:01:00,
2013-02-15 13:11:00,53.0,29.0,30.13,ESE,107,9.0,14.0,39,0.00,,,0.00,,2013-02-15 19:11:00,
2013-02-15 13:22:00,52.0,29.0,30.13,ENE,63,5.0,14.0,41,0.00,,,0.00,,2013-02-15 19:22:00,
2013-02-15 13:32:00,53.0,29.0,30.12,ENE,61,9.0,14.0,40,0.00,,,0.00,,2013-02-15 19:32:00,
2013-02-15 13:41:00,53.0,29.0,30.12,ENE,61,9.0,14.0,40,0.00,,,0.00,,2013-02-15 19:41:00,
2013-02-15 13:52:00,52.0,28.0,30.12,NNE,33,6.0,10.0,39,0.00,,,0.00,,2013-02-15 19:52:00,
2013-02-15 14:01:00,52.0,28.0,30.12,North,10,7.0,13.0,40,0.00,,,0.00,,2013-02-15 20:01:00,
2013-02-15 14:11:00,52.0,28.0,30.12,North,10,7.0,13.0,40,0.00,,,0.00,,2013-02-15 20:11:00,
2013-02-15 14:21:00,53.0,28.0,30.12,NE,36,6.0,10.0,38,0.00,,,0.00,,2013-02-15 20:21:00,
2013-02-15 14:32:00,52.0,29.0,30.12,NE,34,5.0,16.0,41,0.00,,,0.00,,2013-02-15 20:32:00,
2013-02-15 14:42:00,52.0,29.0,30.12,NE,34,5.0,16.0,41,0.00,,,0.00,,2013-02-15 20:42:00,
2013-02-15 14:52:00,52.0,30.0,30.12,East,79,5.0,12.0,42,0.00,,,0.00,,2013-02-15 20:52:00,
2013-02-15 15:01:00,52.0,29.0,30.11,NNE,13,7.0,11.0,41,0.00,,,0.00,,2013-02-15 21:01:00,
2013-02-15 15:11:00,52.0,29.0,30.11,NNE,13,7.0,11.0,41,0.00,,,0.00,,2013-02-15 21:11:00,
2013-02-15 15:21:00,51.0,28.0,30.12,ENE,75,8.0,15.0,40,0.00,,,0.00,,2013-02-15 21:21:00,
2013-02-15 15:31:00,51.0,28.0,30.12,ENE,68,4.0,15.0,41,0.00,,,0.00,,2013-02-15 21:31:00,
2013-02-15 15:42:00,51.0,28.0,30.12,ENE,68,4.0,15.0,41,0.00,,,0.00,,2013-02-15 21:42:00,
2013-02-15 15:52:00,51.0,28.0,30.12,ENE,59,4.0,12.0,40,0.00,,,0.00,,2013-02-15 21:52:00,
2013-02-15 16:02:00,51.0,27.0,30.13,North,5,7.0,13.0,39,0.00,,,0.00,,2013-02-15 22:02:00,
2013-02-15 16:11:00,51.0,27.0,30.13,North,5,7.0,13.0,39,0.00,,,0.00,,2013-02-15 22:11:00,
2013-02-15 16:21:00,50.0,26.0,30.13,NNE,26,5.0,11.0,39,0.00,,,0.00,,2013-02-15 22:21:00,
2013-02-15 16:31:00,50.0,27.0,30.13,NE,35,6.0,12.0,41,0.00,,,0.00,,2013-02-15 22:31:00,
2013-02-15 16:41:00,50.0,27.0,30.13,NE,35,6.0,12.0,41,0.00,,,0.00,,2013-02-15 22:41:00,
2013-02-15 16:52:00,49.0,27.0,30.13,ENE,64,6.0,13.0,42,0.00,,,0.00,,2013-02-15 22:52:00,
2013-02-15 17:02:00,49.0,29.0,30.14,NE,43,6.0,17.0,45,0.00,,,0.00,,2013-02-15 23:02:00,
2013-02-15 17:11:00,49.0,29.0,30.14,NE,43,6.0,17.0,45,0.00,,,0.00,,2013-02-15 23:11:00,
2013-02-15 17:21:00,48.0,28.0,30.14,NE,40,5.0,13.0,46,0.00,,,0.00,,2013-02-15 23:21:00,
2013-02-15 17:31:00,48.0,28.0,30.14,NE,42,6.0,13.0,46,0.00,,,0.00,,2013-02-15 23:31:00,
2013-02-15 17:42:00,48.0,28.0,30.14,NE,42,6.0,13.0,46,0.00,,,0.00,,2013-02-15 23:42:00,
2013-02-15 17:52:00,48.0,29.0,30.14,NE,34,8.0,14.0,47,0.00,,,0.00,,2013-02-15 23:52:00,
2013-02-15 18:02:00,47.0,27.0,30.15,NE,46,9.0,14.0,46,0.00,,,0.00,,2013-02-16 00:02:00,
2013-02-15 18:11:00,47.0,27.0,30.15,NE,46,9.0,14.0,46,0.00,,,0.00,,2013-02-16 00:11:00,
2013-02-15 18:21:00,46.0,27.0,30.15,NNE,29,5.0,10.0,48,0.00,,,0.00,,2013-02-16 00:21:00,
2013-02-15 18:32:00,46.0,28.0,30.16,NNE,30,2.0,8.0,50,0.00,,,0.00,,2013-02-16 00:32:00,
2013-02-15 18:41:00,46.0,28.0,30.16,NNE,30,2.0,8.0,50,0.00,,,0.00,,2013-02-16 00:41:00,
2013-02-15 18:52:00,45.0,28.0,30.16,NE,55,2.0,4.0,52,0.00,,,0.00,,2013-02-16 00:52:00,
2013-02-15 19:02:00,45.0,30.0,30.17,NNE,32,3.0,7.0,56,0.00,,,0.00,,2013-02-16 01:02:00,
2013-02-15 19:11:00,45.0,30.0,30.17,NNE,32,3.0,7.0,56,0.00,,,0.00,,2013-02-16 01:11:00,
2013-02-15 19:21:00,44.0,31.0,30.16,ENE,74,4.0,7.0,59,0.00,,,0.00,,2013-02-16 01:21:00,
2013-02-15 19:31:00,43.0,30.0,30.17,ENE,61,0.0,5.0,61,0.00,,,0.00,,2013-02-16 01:31:00,
2013-02-15 19:41:00,43.0,30.0,30.17,ENE,61,0.0,5.0,61,0.00,,,0.00,,2013-02-16 01:41:00,
2013-02-15 19:52:00,43.0,31.0,30.17,NE,56,0.0,5.0,62,0.00,,,0.00,,2013-02-16 01:52:00,
2013-02-15 20:01:00,42.0,30.0,30.17,NE,56,0.0,0.0,63,0.00,,,0.00,,2013-02-16 02:01:00,
2013-02-15 20:11:00,42.0,30.0,30.17,NE,56,0.0,0.0,63,0.00,,,0.00,,2013-02-16 02:11:00,
2013-02-15 20:21:00,42.0,31.0,30.17,NE,56,0.0,0.0,64,0.00,,,0.00,,2013-02-16 02:21:00,
2013-02-15 20:31:00,42.0,31.0,30.17,NE,56,0.0,0.0,65,0.00,,,0.00,,2013-02-16 02:31:00,
2013-02-15 20:42:00,42.0,31.0,30.17,NE,56,0.0,0.0,65,0.00,,,0.00,,2013-02-16 02:42:00,
2013-02-15 20:52:00,41.0,31.0,30.17,NE,56,0.0,0.0,67,0.00,,,0.00,,2013-02-16 02:52:00,
2013-02-15 21:01:00,40.0,31.0,30.18,NE,56,0.0,0.0,69,0.00,,,0.00,,2013-02-16 03:01:00,
2013-02-15 21:11:00,40.0,31.0,30.18,NE,56,0.0,0.0,69,0.00,,,0.00,,2013-02-16 03:11:00,
2013-02-15 21:21:00,39.0,30.0,30.17,NE,56,0.0,0.0,71,0.00,,,0.00,,2013-02-16 03:21:00,
2013-02-15 21:32:00,39.0,31.0,30.17,NE,56,0.0,0.0,73,0.00,,,0.00,,2013-02-16 03:32:00,
2013-02-15 21:41:00,39.0,31.0,30.17,NE,56,0.0,0.0,73,0.00,,,0.00,,2013-02-16 03:41:00,
2013-02-15 21:52:00,38.0,31.0,30.17,NE,56,0.0,0.0,75,0.00,,,0.00,,2013-02-16 03:52:00,
2013-02-15 22:01:00,38.0,31.0,30.18,NE,56,0.0,0.0,76,0.00,,,0.00,,2013-02-16 04:01:00,
2013-02-15 22:11:00,38.0,31.0,30.18,NE,56,0.0,0.0,76,0.00,,,0.00,,2013-02-16 04:11:00,
2013-02-15 22:21:00,37.0,31.0,30.18,NE,56,0.0,0.0,78,0.00,,,0.00,,2013-02-16 04:21:00,
2013-02-15 22:32:00,37.0,31.0,30.18,NE,56,0.0,0.0,79,0.00,,,0.00,,2013-02-16 04:32:00,
2013-02-15 22:41:00,37.0,31.0,30.18,NE,56,0.0,0.0,79,0.00,,,0.00,,2013-02-16 04:41:00,
2013-02-15 22:52:00,37.0,31.0,30.18,NE,56,0.0,0.0,79,0.00,,,0.00,,2013-02-16 04:52:00,
2013-02-15 23:01:00,38.0,31.0,30.18,NE,56,0.0,0.0,75,0.00,,,0.00,,2013-02-16 05:01:00,
2013-02-15 23:12:00,38.0,31.0,30.18,NE,56,0.0,0.0,75,0.00,,,0.00,,2013-02-16 05:12:00,
2013-02-15 23:22:00,39.0,30.0,30.18,NNE,16,2.0,6.0,70,0.00,,,0.00,,2013-02-16 05:22:00,
2013-02-15 23:32:00,39.0,29.0,30.17,NE,55,0.0,4.0,67,0.00,,,0.00,,2013-02-16 05:32:00,
2013-02-15 23:42:00,39.0,29.0,30.17,NE,55,0.0,4.0,67,0.00,,,0.00,,2013-02-16 05:42:00,
2013-02-15 23:52:00,39.0,27.0,30.18,East,81,3.0,7.0,62,0.00,,,0.00,,2013-02-16 05:52:00,